TimeCDT,TemperatureF,Dew PointF,Humidity,Sea Level PressureIn,VisibilityMPH,Wind Direction,Wind SpeedMPH,Gust SpeedMPH,PrecipitationIn,Events,Conditions,WindDirDegrees,DateUTC
12:15 AM,66.6,62.2,86,30.20,10.0,NNW,4.6,-,N/A,Thunderstorm,Clear,340,2013-07-01 05:15:00
12:35 AM,66.7,62.6,86,30.21,10.0,NNW,5.8,-,N/A,,Mostly Cloudy,330,2013-07-01 05:35:00
12:55 AM,66.7,62.6,86,30.21,10.0,NNW,6.9,-,N/A,,Overcast,330,2013-07-01 05:55:00
1:15 AM,66.7,62.4,86,30.21,10.0,NW,8.1,-,N/A,,Overcast,320,2013-07-01 06:15:00
1:35 AM,66.4,62.2,86,30.21,10.0,WNW,6.9,-,N/A,,Overcast,300,2013-07-01 06:35:00
1:55 AM,66.2,62.1,86,30.21,10.0,NW,8.1,-,N/A,,Mostly Cloudy,320,2013-07-01 06:55:00
2:15 AM,66.0,61.9,86,30.21,10.0,NNW,6.9,-,N/A,,Mostly Cloudy,340,2013-07-01 07:15:00
2:35 AM,65.8,61.9,87,30.21,10.0,North,9.2,-,N/A,,Mostly Cloudy,350,2013-07-01 07:35:00
2:55 AM,65.7,62.1,88,30.20,10.0,North,9.2,-,N/A,,Mostly Cloudy,350,2013-07-01 07:55:00
3:15 AM,65.3,62.2,90,30.21,10.0,North,8.1,-,N/A,,Scattered Clouds,360,2013-07-01 08:15:00
3:35 AM,64.9,61.7,89,30.21,10.0,North,8.1,-,N/A,,Mostly Cloudy,10,2013-07-01 08:35:00
3:55 AM,65.3,61.5,88,30.22,10.0,North,9.2,-,N/A,,Overcast,10,2013-07-01 08:55:00
4:15 AM,65.3,61.3,87,30.22,10.0,North,6.9,-,N/A,,Overcast,360,2013-07-01 09:15:00
4:35 AM,65.3,61.7,88,30.22,10.0,North,6.9,-,N/A,,Overcast,10,2013-07-01 09:35:00
4:55 AM,65.3,61.7,88,30.23,10.0,North,6.9,-,N/A,,Overcast,360,2013-07-01 09:55:00
5:15 AM,65.3,61.7,88,30.23,10.0,North,4.6,-,N/A,,Overcast,10,2013-07-01 10:15:00
5:35 AM,65.5,61.7,88,30.24,10.0,North,3.5,-,N/A,,Overcast,10,2013-07-01 10:35:00
5:55 AM,65.3,61.3,87,30.24,10.0,North,3.5,-,N/A,,Overcast,360,2013-07-01 10:55:00
6:15 AM,65.3,61.5,88,30.24,10.0,North,3.5,-,N/A,,Mostly Cloudy,350,2013-07-01 11:15:00
6:35 AM,65.3,61.2,86,30.24,10.0,Calm,Calm,-,N/A,,Mostly Cloudy,0,2013-07-01 11:35:00
6:55 AM,65.1,61.2,87,30.24,7.0,North,3.5,-,N/A,,Mostly Cloudy,10,2013-07-01 11:55:00
7:15 AM,64.8,61.7,90,30.24,7.0,NNE,3.5,-,N/A,,Mostly Cloudy,20,2013-07-01 12:15:00
7:35 AM,65.3,61.7,88,30.24,7.0,NNE,3.5,-,N/A,,Scattered Clouds,30,2013-07-01 12:35:00
7:55 AM,66.2,61.5,85,30.25,7.0,Calm,Calm,-,N/A,,Clear,0,2013-07-01 12:55:00
8:15 AM,67.1,60.6,80,30.25,10.0,Calm,Calm,-,N/A,,Clear,0,2013-07-01 13:15:00
8:35 AM,67.6,60.3,77,30.26,10.0,Calm,Calm,-,N/A,,Clear,0,2013-07-01 13:35:00
8:55 AM,68.2,58.3,71,30.26,10.0,Calm,Calm,-,N/A,,Clear,0,2013-07-01 13:55:00
9:15 AM,68.9,57.9,68,30.26,10.0,Calm,Calm,-,N/A,,Clear,0,2013-07-01 14:15:00
9:35 AM,69.8,56.7,63,30.26,10.0,Calm,Calm,-,N/A,,Clear,0,2013-07-01 14:35:00
9:55 AM,70.3,56.3,61,30.26,10.0,SSE,3.5,-,N/A,,Clear,160,2013-07-01 14:55:00
10:15 AM,70.7,56.3,60,30.26,10.0,Calm,Calm,-,N/A,,Clear,0,2013-07-01 15:15:00
10:35 AM,72.0,57.0,59,30.26,10.0,Calm,Calm,-,N/A,,Clear,0,2013-07-01 15:35:00
10:55 AM,72.7,56.8,57,30.26,10.0,NE,3.5,-,N/A,,Clear,50,2013-07-01 15:55:00
11:15 AM,73.4,56.3,55,30.26,10.0,WNW,3.5,-,N/A,,Clear,300,2013-07-01 16:15:00
11:35 AM,74.7,56.7,53,30.26,10.0,WNW,4.6,-,N/A,,Clear,300,2013-07-01 16:35:00
11:55 AM,74.3,57.2,55,30.26,10.0,Calm,Calm,-,N/A,,Clear,0,2013-07-01 16:55:00
12:15 PM,74.5,56.5,53,30.25,10.0,Calm,Calm,-,N/A,,Clear,0,2013-07-01 17:15:00
12:35 PM,75.6,56.8,52,30.24,10.0,Calm,Calm,-,N/A,,Scattered Clouds,0,2013-07-01 17:35:00
12:55 PM,75.9,57.0,52,30.24,10.0,NNW,4.6,-,N/A,,Scattered Clouds,340,2013-07-01 17:55:00
1:15 PM,77.0,56.1,48,30.24,10.0,NE,3.5,-,N/A,,Scattered Clouds,50,2013-07-01 18:15:00
1:35 PM,77.4,54.5,45,30.23,10.0,Calm,Calm,-,N/A,,Scattered Clouds,0,2013-07-01 18:35:00
1:55 PM,78.4,54.1,43,30.22,10.0,Calm,Calm,-,N/A,,Scattered Clouds,0,2013-07-01 18:55:00
2:15 PM,77.4,54.7,45,30.22,10.0,North,4.6,-,N/A,,Mostly Cloudy,350,2013-07-01 19:15:00
2:35 PM,78.8,54.5,43,30.21,10.0,North,4.6,-,N/A,,Mostly Cloudy,360,2013-07-01 19:35:00
2:55 PM,77.9,55.9,47,30.21,10.0,NE,8.1,-,N/A,,Mostly Cloudy,40,2013-07-01 19:55:00
3:15 PM,79.3,52.2,39,30.20,10.0,ESE,4.6,-,N/A,,Scattered Clouds,110,2013-07-01 20:15:00
3:35 PM,79.0,52.2,39,30.19,10.0,SE,4.6,-,N/A,,Scattered Clouds,140,2013-07-01 20:35:00
3:55 PM,79.9,52.3,38,30.19,10.0,East,3.5,-,N/A,,Clear,80,2013-07-01 20:55:00
4:15 PM,79.9,52.5,39,30.19,10.0,ESE,3.5,-,N/A,,Scattered Clouds,120,2013-07-01 21:15:00
4:35 PM,80.8,50.5,35,30.18,10.0,Calm,Calm,-,N/A,,Scattered Clouds,0,2013-07-01 21:35:00
4:55 PM,80.4,46.9,31,30.17,10.0,ENE,4.6,-,N/A,,Mostly Cloudy,60,2013-07-01 21:55:00
5:15 PM,80.6,47.8,32,30.18,10.0,NE,11.5,16.1,N/A,,Mostly Cloudy,40,2013-07-01 22:15:00
5:35 PM,79.7,46.8,31,30.19,10.0,ENE,9.2,-,N/A,,Mostly Cloudy,60,2013-07-01 22:35:00
5:55 PM,78.6,46.9,33,30.19,10.0,NNE,11.5,-,N/A,,Overcast,30,2013-07-01 22:55:00
6:15 PM,78.1,49.1,36,30.18,10.0,NE,9.2,-,N/A,,Overcast,40,2013-07-01 23:15:00
6:35 PM,77.5,47.5,35,30.18,10.0,NNE,8.1,-,N/A,,Overcast,20,2013-07-01 23:35:00
6:55 PM,72.5,57.4,59,30.18,10.0,NW,10.4,-,N/A,,Overcast,320,2013-07-01 23:55:00
7:15 PM,73.9,56.5,54,30.19,10.0,NNW,12.7,-,N/A,,Overcast,330,2013-07-02 00:15:00
7:35 PM,77.0,54.0,45,30.19,10.0,North,11.5,16.1,N/A,,Scattered Clouds,350,2013-07-02 00:35:00
7:55 PM,78.1,46.6,33,30.20,10.0,ENE,11.5,-,N/A,,Mostly Cloudy,60,2013-07-02 00:55:00
8:15 PM,77.0,48.6,37,30.20,10.0,ENE,19.6,25.3,N/A,,Mostly Cloudy,60,2013-07-02 01:15:00
8:35 PM,73.6,50.5,44,30.21,10.0,ENE,17.3,-,N/A,,Mostly Cloudy,60,2013-07-02 01:35:00
8:55 PM,71.8,50.7,47,30.21,10.0,ENE,12.7,19.6,N/A,,Scattered Clouds,60,2013-07-02 01:55:00
9:15 PM,70.3,50.9,50,30.22,10.0,ENE,11.5,-,N/A,,Clear,60,2013-07-02 02:15:00
9:35 PM,69.3,50.5,51,30.22,10.0,ENE,10.4,-,N/A,,Clear,70,2013-07-02 02:35:00
9:55 PM,67.8,50.9,55,30.24,10.0,East,9.2,-,N/A,,Clear,90,2013-07-02 02:55:00
10:15 PM,67.3,48.6,51,30.24,10.0,East,9.2,-,N/A,,Clear,100,2013-07-02 03:15:00
10:35 PM,65.7,49.5,56,30.25,10.0,East,8.1,-,N/A,,Clear,90,2013-07-02 03:35:00
10:55 PM,64.8,49.1,57,30.25,10.0,East,8.1,-,N/A,,Clear,100,2013-07-02 03:55:00
11:15 PM,64.2,47.8,55,30.26,10.0,East,6.9,-,N/A,,Clear,100,2013-07-02 04:15:00
11:35 PM,62.6,48.4,60,30.26,10.0,East,4.6,-,N/A,,Clear,90,2013-07-02 04:35:00
11:55 PM,62.2,48.6,61,30.27,10.0,East,3.5,-,N/A,,Clear,90,2013-07-02 04:55:00